User: anonymous   Login
Location: Unspecified
(0.0000°N, 0.0000°E)
Time: 20:31:14
(UTC+00:00)
Language:

Interbol-2 - Orbit

View from above orbital plane
View from above orbital plane
View from above satellite
View from above satellite

Ground track
Ground track

The orbit data is extracted from the following two-line orbital elements,

1 24292U 96050B   18265.63141789 +.00000009 +00000-0 +00000-0 0  9999
2 24292 063.5000 062.0843 5315893 236.8923 044.5084 04.14703438334206
Epoch (UTC): 22 September 2018 15:09:14
Eccentricity: 0.5315893
inclination: 63.5000°
perigee height: 1287 km
apogee height: 18686 km
right ascension of ascending node: 62.0843°
argument of perigee: 236.8923°
revolutions per day: 4.14703438
mean anomaly at epoch: 44.5084°
orbit number at epoch: 33420

The dashed part of the orbit path shows where the satellite is in the earth's shadow,  

DLR